Time,TemperatureF,DewpointF,PressureIn,WindDirection,WindDirectionDegrees,WindSpeedMPH,WindSpeedGustMPH,Humidity,HourlyPrecipIn,Conditions,Clouds,dailyrainin,SoftwareType,DateUTC
2013-05-14 00:09:00,53.2,46.9,30.06,North,0,0.0,0.0,79,0.00,,---,0.00,VWS V14.01,2013-05-14 07:09:00,
2013-05-14 00:14:00,53.2,46.9,30.06,North,0,0.0,0.0,79,0.00,,---,0.00,VWS V14.01,2013-05-14 07:14:00,
2013-05-14 00:24:00,52.9,46.5,30.06,NW,315,0.0,0.0,79,0.00,,---,0.00,VWS V14.01,2013-05-14 07:24:00,
2013-05-14 00:34:00,52.7,46.7,30.06,WSW,248,0.0,2.7,80,0.00,,---,0.00,VWS V14.01,2013-05-14 07:34:00,
2013-05-14 00:39:00,52.7,46.7,30.06,SE,135,3.8,3.8,80,0.00,,---,0.00,VWS V14.01,2013-05-14 07:39:00,
2013-05-14 00:44:00,52.9,47.2,30.03,SE,135,0.0,3.8,81,0.00,,---,0.00,VWS V14.01,2013-05-14 07:44:00,
2013-05-14 00:49:00,52.9,47.2,30.03,SSW,202,0.0,2.2,81,0.00,,---,0.00,VWS V14.01,2013-05-14 07:49:00,
2013-05-14 00:59:00,52.9,47.5,30.03,ESE,112,0.0,1.6,82,0.00,,---,0.00,VWS V14.01,2013-05-14 07:59:00,
2013-05-14 01:04:00,52.9,47.5,30.03,SSW,202,0.0,2.7,82,0.00,,---,0.00,VWS V14.01,2013-05-14 08:04:00,
2013-05-14 01:09:00,52.9,47.5,30.03,ESE,112,1.1,2.5,82,0.00,,---,0.00,VWS V14.01,2013-05-14 08:09:00,
2013-05-14 01:14:00,52.9,47.9,30.06,WSW,248,1.1,2.9,83,0.00,,---,0.00,VWS V14.01,2013-05-14 08:14:00,
2013-05-14 01:19:00,52.9,47.9,30.06,SSE,158,2.2,2.2,83,0.00,,---,0.00,VWS V14.01,2013-05-14 08:19:00,
2013-05-14 01:29:00,52.9,47.9,30.03,ENE,68,2.2,3.1,83,0.00,,---,0.00,VWS V14.01,2013-05-14 08:29:00,
2013-05-14 01:39:00,53.1,48.7,30.03,South,180,0.0,3.8,85,0.00,,---,0.00,VWS V14.01,2013-05-14 08:39:00,
2013-05-14 01:44:00,52.9,48.2,30.03,SSW,202,0.0,2.9,84,0.00,,---,0.00,VWS V14.01,2013-05-14 08:44:00,
2013-05-14 01:49:00,52.7,48.0,30.03,WSW,248,0.0,1.6,84,0.00,,---,0.00,VWS V14.01,2013-05-14 08:49:00,
2013-05-14 01:59:00,52.7,48.0,30.03,SSW,202,2.7,2.7,84,0.00,,---,0.00,VWS V14.01,2013-05-14 08:59:00,
2013-05-14 02:09:00,52.7,48.3,30.03,SSW,202,1.1,2.9,85,0.00,,---,0.00,VWS V14.01,2013-05-14 09:09:00,
2013-05-14 02:14:00,52.9,48.8,30.03,SSW,202,3.1,4.7,86,0.00,,---,0.00,VWS V14.01,2013-05-14 09:14:00,
2013-05-14 02:19:00,52.7,48.6,30.03,SSE,158,2.5,3.6,86,0.00,,---,0.00,VWS V14.01,2013-05-14 09:19:00,
2013-05-14 02:24:00,52.9,49.4,30.03,NW,315,1.3,4.0,88,0.00,,---,0.00,VWS V14.01,2013-05-14 09:24:00,
2013-05-14 02:29:00,52.7,49.0,30.03,West,270,0.0,2.5,87,0.00,,---,0.00,VWS V14.01,2013-05-14 09:29:00,
2013-05-14 02:34:00,52.7,48.6,30.03,SSE,158,3.8,3.8,86,0.00,,---,0.00,VWS V14.01,2013-05-14 09:34:00,
2013-05-14 02:44:00,52.7,48.6,30.03,SE,135,0.0,3.4,86,0.00,,---,0.00,VWS V14.01,2013-05-14 09:44:00,
2013-05-14 02:49:00,52.7,48.6,30.03,SSW,202,1.1,2.0,86,0.00,,---,0.00,VWS V14.01,2013-05-14 09:49:00,
2013-05-14 02:59:00,52.7,49.0,30.03,WNW,292,2.0,3.1,87,0.00,,---,0.00,VWS V14.01,2013-05-14 09:59:00,
2013-05-14 03:04:00,52.7,49.0,30.03,SSW,202,1.6,2.5,87,0.00,,---,0.00,VWS V14.01,2013-05-14 10:04:00,
2013-05-14 03:14:00,52.5,48.8,30.03,South,180,0.9,2.5,87,0.00,,---,0.00,VWS V14.01,2013-05-14 10:14:00,
2013-05-14 03:19:00,52.3,48.3,30.03,SW,225,0.0,2.7,86,0.00,,---,0.00,VWS V14.01,2013-05-14 10:19:00,
2013-05-14 03:24:00,52.2,48.1,30.03,WSW,248,2.2,3.4,86,0.00,,---,0.00,VWS V14.01,2013-05-14 10:24:00,
2013-05-14 03:29:00,52.2,48.7,30.03,SW,225,0.0,4.3,88,0.00,,---,0.00,VWS V14.01,2013-05-14 10:29:00,
2013-05-14 03:34:00,52.2,48.7,30.03,WSW,248,1.3,4.9,88,0.00,,---,0.00,VWS V14.01,2013-05-14 10:34:00,
2013-05-14 03:39:00,52.0,48.5,30.03,WSW,248,2.5,3.4,88,0.00,,---,0.00,VWS V14.01,2013-05-14 10:39:00,
2013-05-14 03:49:00,52.3,49.5,30.03,SW,225,2.9,3.6,90,0.00,,---,0.00,VWS V14.01,2013-05-14 10:49:00,
2013-05-14 03:59:00,52.9,50.6,30.03,SW,225,6.3,6.3,92,0.00,,---,0.00,VWS V14.01,2013-05-14 10:59:00,
2013-05-14 04:04:00,53.1,50.8,30.03,SE,135,2.7,6.5,92,0.00,,---,0.00,VWS V14.01,2013-05-14 11:04:00,
2013-05-14 04:14:00,53.1,50.5,30.03,WNW,292,3.8,5.8,91,0.00,,---,0.00,VWS V14.01,2013-05-14 11:14:00,
2013-05-14 04:19:00,53.1,50.2,30.03,West,270,6.0,6.5,90,0.00,,---,0.00,VWS V14.01,2013-05-14 11:19:00,
2013-05-14 04:29:00,52.7,49.0,30.03,WSW,248,4.0,4.3,87,0.00,,---,0.00,VWS V14.01,2013-05-14 11:29:00,
2013-05-14 04:34:00,52.5,48.8,30.03,WNW,292,1.3,5.4,87,0.00,,---,0.00,VWS V14.01,2013-05-14 11:34:00,
2013-05-14 04:44:00,52.5,48.8,30.03,SSW,202,1.6,3.8,87,0.00,,---,0.00,VWS V14.01,2013-05-14 11:44:00,
2013-05-14 04:50:00,52.5,48.8,30.03,SSE,158,2.9,4.7,87,0.00,,---,0.00,VWS V14.01,2013-05-14 11:50:00,
2013-05-14 05:04:00,52.5,48.5,30.03,SSW,202,0.9,5.4,86,0.00,,---,0.00,VWS V14.01,2013-05-14 12:04:00,
2013-05-14 05:21:00,52.0,47.6,30.03,WSW,248,2.2,4.0,85,0.00,,---,0.00,VWS V14.01,2013-05-14 12:21:00,
2013-05-14 05:29:00,51.6,47.3,30.03,SSW,202,1.6,2.5,85,0.00,,---,0.00,VWS V14.01,2013-05-14 12:29:00,
2013-05-14 05:40:00,51.6,47.6,30.03,WSW,248,0.0,2.0,86,0.00,,---,0.00,VWS V14.01,2013-05-14 12:40:00,
2013-05-14 05:57:00,52.0,48.2,30.03,WSW,248,0.0,2.9,87,0.00,,---,0.00,VWS V14.01,2013-05-14 12:57:00,
2013-05-14 06:11:00,52.5,48.8,30.03,WSW,248,0.0,4.3,87,0.00,,---,0.00,VWS V14.01,2013-05-14 13:11:00,
2013-05-14 07:29:00,53.8,49.1,30.03,SSW,202,0.0,2.7,84,0.00,,---,0.00,VWS V14.01,2013-05-14 14:29:00,
2013-05-14 07:39:00,57.0,51.3,30.03,SW,225,1.3,2.9,81,0.00,,---,0.00,VWS V14.01,2013-05-14 14:39:00,
2013-05-14 07:49:00,58.3,50.0,30.03,SSW,202,0.0,4.9,74,0.00,,---,0.00,VWS V14.01,2013-05-14 14:49:00,
2013-05-14 07:59:00,58.8,50.2,30.03,NNW,338,0.0,2.9,73,0.00,,---,0.00,VWS V14.01,2013-05-14 14:59:00,
2013-05-14 08:04:00,59.4,50.3,30.03,SSW,202,2.0,3.4,72,0.00,,---,0.00,VWS V14.01,2013-05-14 15:04:00,
2013-05-14 08:14:00,59.9,50.1,30.03,SSE,158,1.3,3.4,70,0.00,,---,0.00,VWS V14.01,2013-05-14 15:14:00,
2013-05-14 08:19:00,60.1,49.9,30.03,SSW,202,3.1,3.8,69,0.00,,---,0.00,VWS V14.01,2013-05-14 15:19:00,
2013-05-14 08:29:00,60.3,50.1,30.06,SSW,202,2.9,4.7,69,0.00,,---,0.00,VWS V14.01,2013-05-14 15:29:00,
2013-05-14 08:34:00,61.0,50.0,30.06,ESE,112,1.6,6.3,67,0.00,,---,0.00,VWS V14.01,2013-05-14 15:34:00,
2013-05-14 08:44:00,62.6,50.3,30.06,WSW,248,3.1,4.0,64,0.00,,---,0.00,VWS V14.01,2013-05-14 15:44:00,
2013-05-14 08:49:00,63.0,49.8,30.06,WSW,248,0.0,5.8,62,0.00,,---,0.00,VWS V14.01,2013-05-14 15:49:00,
2013-05-14 08:59:00,64.2,50.5,30.06,WNW,292,5.8,5.8,61,0.00,,---,0.00,VWS V14.01,2013-05-14 15:59:00,
2013-05-14 09:09:00,64.8,49.2,30.06,SSW,202,3.4,7.8,57,0.00,,---,0.00,VWS V14.01,2013-05-14 16:09:00,
2013-05-14 09:14:00,65.7,48.6,30.06,SSW,202,2.0,6.0,54,0.00,,---,0.00,VWS V14.01,2013-05-14 16:14:00,
2013-05-14 09:19:00,66.2,48.1,30.06,ESE,112,4.0,4.3,52,0.00,,---,0.00,VWS V14.01,2013-05-14 16:19:00,
2013-05-14 09:29:00,67.1,47.3,30.06,WSW,248,5.6,8.1,49,0.00,,---,0.00,VWS V14.01,2013-05-14 16:29:00,
2013-05-14 09:34:00,67.3,46.9,30.06,ESE,112,1.6,5.6,48,0.00,,---,0.00,VWS V14.01,2013-05-14 16:34:00,
2013-05-14 09:39:00,67.1,46.2,30.06,SSE,158,2.7,6.3,47,0.00,,---,0.00,VWS V14.01,2013-05-14 16:39:00,
2013-05-14 09:44:00,68.4,47.4,30.06,WNW,292,1.6,4.3,47,0.00,,---,0.00,VWS V14.01,2013-05-14 16:44:00,
2013-05-14 09:49:00,67.5,46.0,30.06,WSW,248,2.7,6.0,46,0.00,,---,0.00,VWS V14.01,2013-05-14 16:49:00,
2013-05-14 09:59:00,69.1,46.9,30.06,WSW,248,4.9,4.9,45,0.00,,---,0.00,VWS V14.01,2013-05-14 16:59:00,
2013-05-14 10:09:00,69.1,46.9,30.06,NW,315,3.1,8.5,45,0.00,,---,0.00,VWS V14.01,2013-05-14 17:09:00,
2013-05-14 10:19:00,69.4,47.2,30.06,WNW,292,2.7,6.0,45,0.00,,---,0.00,VWS V14.01,2013-05-14 17:19:00,
2013-05-14 10:29:00,69.8,46.9,30.06,SSE,158,4.7,8.1,44,0.00,,---,0.00,VWS V14.01,2013-05-14 17:29:00,
2013-05-14 10:34:00,70.9,47.9,30.06,SSW,202,3.4,4.7,44,0.00,,---,0.00,VWS V14.01,2013-05-14 17:34:00,
2013-05-14 10:39:00,70.3,46.8,30.06,NNE,22,2.9,7.4,43,0.00,,---,0.00,VWS V14.01,2013-05-14 17:39:00,
2013-05-14 10:44:00,70.5,47.0,30.03,West,270,3.6,5.4,43,0.00,,---,0.00,VWS V14.01,2013-05-14 17:44:00,
2013-05-14 10:49:00,70.9,47.3,30.03,West,270,4.3,5.6,43,0.00,,---,0.00,VWS V14.01,2013-05-14 17:49:00,
2013-05-14 10:59:00,72.1,47.2,30.09,SW,225,2.5,6.0,41,0.00,,---,0.00,VWS V14.01,2013-05-14 17:59:00,
2013-05-14 11:04:00,72.0,46.3,30.09,West,270,5.4,5.4,40,0.00,,---,0.00,VWS V14.01,2013-05-14 18:04:00,
2013-05-14 11:09:00,71.8,46.2,30.09,WSW,248,1.3,5.4,40,0.00,,---,0.00,VWS V14.01,2013-05-14 18:09:00,
2013-05-14 11:19:00,73.9,47.5,30.03,WSW,248,0.9,5.4,39,0.00,,---,0.00,VWS V14.01,2013-05-14 18:19:00,
2013-05-14 11:29:00,72.5,45.5,30.03,WSW,248,7.2,8.7,38,0.00,,---,0.00,VWS V14.01,2013-05-14 18:29:00,
2013-05-14 11:34:00,72.9,45.8,30.03,WSW,248,3.1,7.8,38,0.00,,---,0.00,VWS V14.01,2013-05-14 18:34:00,
2013-05-14 11:44:00,73.8,45.2,30.06,SSW,202,1.6,5.6,36,0.00,,---,0.00,VWS V14.01,2013-05-14 18:44:00,
2013-05-14 11:49:00,74.7,46.0,30.06,WSW,248,2.2,9.8,36,0.00,,---,0.00,VWS V14.01,2013-05-14 18:49:00,
2013-05-14 11:59:00,74.1,44.8,30.06,SW,225,3.6,6.5,35,0.00,,---,0.00,VWS V14.01,2013-05-14 18:59:00,
2013-05-14 12:09:00,74.3,44.1,30.06,West,270,2.5,6.3,34,0.00,,---,0.00,VWS V14.01,2013-05-14 19:09:00,
2013-05-14 12:19:00,75.7,44.6,30.06,SW,225,4.0,5.6,33,0.00,,---,0.00,VWS V14.01,2013-05-14 19:19:00,
2013-05-14 12:29:00,74.3,43.4,30.06,West,270,6.5,6.5,33,0.00,,---,0.00,VWS V14.01,2013-05-14 19:29:00,
2013-05-14 12:39:00,74.5,43.5,30.06,SSW,202,2.9,7.2,33,0.00,,---,0.00,VWS V14.01,2013-05-14 19:39:00,
2013-05-14 12:49:00,74.7,43.7,30.06,ESE,112,2.2,7.6,33,0.00,,---,0.00,VWS V14.01,2013-05-14 19:49:00,
2013-05-14 12:59:00,76.1,44.1,30.06,SSE,158,3.4,5.6,32,0.00,,---,0.00,VWS V14.01,2013-05-14 19:59:00,
2013-05-14 13:04:00,75.4,43.5,30.06,North,0,2.9,6.5,32,0.00,,---,0.00,VWS V14.01,2013-05-14 20:04:00,
2013-05-14 13:09:00,75.7,43.8,30.06,SSW,202,3.6,6.3,32,0.00,,---,0.00,VWS V14.01,2013-05-14 20:09:00,
2013-05-14 13:14:00,76.3,44.3,30.06,WSW,248,3.8,8.1,32,0.00,,---,0.00,VWS V14.01,2013-05-14 20:14:00,
2013-05-14 13:19:00,75.4,42.7,30.06,South,180,3.4,5.8,31,0.00,,---,0.00,VWS V14.01,2013-05-14 20:19:00,
2013-05-14 13:29:00,76.6,43.8,30.06,SSW,202,4.0,4.5,31,0.00,,---,0.00,VWS V14.01,2013-05-14 20:29:00,
2013-05-14 13:39:00,75.0,42.4,30.06,SSE,158,6.0,8.7,31,0.00,,---,0.00,VWS V14.01,2013-05-14 20:39:00,
2013-05-14 13:44:00,76.1,43.3,30.06,SW,225,3.1,6.0,31,0.00,,---,0.00,VWS V14.01,2013-05-14 20:44:00,
2013-05-14 13:49:00,77.0,43.2,30.06,WSW,248,5.6,5.8,30,0.00,,---,0.00,VWS V14.01,2013-05-14 20:49:00,
2013-05-14 13:59:00,77.2,44.2,30.06,SW,225,2.7,8.1,31,0.00,,---,0.00,VWS V14.01,2013-05-14 20:59:00,
2013-05-14 14:04:00,78.1,44.2,30.06,SE,135,2.0,4.0,30,0.00,,---,0.00,VWS V14.01,2013-05-14 21:04:00,
2013-05-14 14:14:00,75.4,42.7,30.06,SW,225,2.5,7.6,31,0.00,,---,0.00,VWS V14.01,2013-05-14 21:14:00,
2013-05-14 14:19:00,75.7,43.0,30.06,SSW,202,2.5,7.4,31,0.00,,---,0.00,VWS V14.01,2013-05-14 21:19:00,
2013-05-14 14:29:00,77.7,43.8,30.06,SSW,202,2.2,5.4,30,0.00,,---,0.00,VWS V14.01,2013-05-14 21:29:00,
2013-05-14 14:39:00,77.5,43.7,30.06,SW,225,4.0,5.4,30,0.00,,---,0.00,VWS V14.01,2013-05-14 21:39:00,
2013-05-14 14:49:00,75.9,43.1,30.06,NNW,338,2.5,7.2,31,0.00,,---,0.00,VWS V14.01,2013-05-14 21:49:00,
2013-05-14 14:59:00,75.7,43.0,30.06,NW,315,3.1,5.6,31,0.00,,---,0.00,VWS V14.01,2013-05-14 21:59:00,
2013-05-14 15:04:00,75.0,43.2,30.06,SSE,158,2.0,8.1,32,0.00,,---,0.00,VWS V14.01,2013-05-14 22:04:00,
2013-05-14 15:09:00,76.5,43.6,30.06,SSW,202,2.7,5.8,31,0.00,,---,0.00,VWS V14.01,2013-05-14 22:09:00,
2013-05-14 15:14:00,77.0,43.2,30.06,South,180,3.8,4.7,30,0.00,,---,0.00,VWS V14.01,2013-05-14 22:14:00,
2013-05-14 15:19:00,75.9,43.1,30.06,South,180,3.1,6.5,31,0.00,,---,0.00,VWS V14.01,2013-05-14 22:19:00,
2013-05-14 15:29:00,76.6,43.8,30.06,SW,225,3.1,9.6,31,0.00,,---,0.00,VWS V14.01,2013-05-14 22:29:00,
2013-05-14 15:39:00,77.9,44.0,30.06,NNW,338,2.2,7.2,30,0.00,,---,0.00,VWS V14.01,2013-05-14 22:39:00,
2013-05-14 15:49:00,75.7,43.0,30.06,SSW,202,5.8,7.8,31,0.00,,---,0.00,VWS V14.01,2013-05-14 22:49:00,
2013-05-14 15:59:00,75.9,43.1,30.06,SW,225,3.8,5.8,31,0.00,,---,0.00,VWS V14.01,2013-05-14 22:59:00,
2013-05-14 16:04:00,76.3,43.5,30.06,WSW,248,7.6,7.6,31,0.00,,---,0.00,VWS V14.01,2013-05-14 23:04:00,
2013-05-14 16:09:00,76.6,43.8,30.06,SSW,202,2.5,7.6,31,0.00,,---,0.00,VWS V14.01,2013-05-14 23:09:00,
2013-05-14 16:19:00,75.0,42.4,30.06,SSW,202,7.6,7.6,31,0.00,,---,0.00,VWS V14.01,2013-05-14 23:19:00,
2013-05-14 16:29:00,75.6,42.8,30.06,SW,225,4.3,6.0,31,0.00,,---,0.00,VWS V14.01,2013-05-14 23:29:00,
2013-05-14 16:34:00,76.3,43.5,30.06,North,0,2.7,4.3,31,0.00,,---,0.00,VWS V14.01,2013-05-14 23:34:00,
2013-05-14 16:44:00,75.4,42.7,30.03,SSW,202,2.9,6.9,31,0.00,,---,0.00,VWS V14.01,2013-05-14 23:44:00,
2013-05-14 16:49:00,74.5,41.9,30.03,SSW,202,3.1,7.4,31,0.00,,---,0.00,VWS V14.01,2013-05-14 23:49:00,
2013-05-14 16:59:00,74.7,42.0,30.06,SSE,158,5.4,5.6,31,0.00,,---,0.00,VWS V14.01,2013-05-14 23:59:00,
2013-05-14 17:04:00,74.5,42.7,30.06,West,270,2.9,6.3,32,0.00,,---,0.00,VWS V14.01,2013-05-15 00:04:00,
2013-05-14 17:09:00,72.5,41.0,30.06,West,270,6.5,8.1,32,0.00,,---,0.00,VWS V14.01,2013-05-15 00:09:00,
2013-05-14 17:19:00,73.6,41.9,30.03,West,270,6.0,6.0,32,0.00,,---,0.00,VWS V14.01,2013-05-15 00:19:00,
2013-05-14 17:29:00,72.9,42.1,30.06,South,180,3.8,5.4,33,0.00,,---,0.00,VWS V14.01,2013-05-15 00:29:00,
2013-05-14 17:34:00,72.3,41.6,30.06,WSW,248,7.2,7.2,33,0.00,,---,0.00,VWS V14.01,2013-05-15 00:34:00,
2013-05-14 17:44:00,72.7,42.0,30.06,WSW,248,2.2,4.3,33,0.00,,---,0.00,VWS V14.01,2013-05-15 00:44:00,
2013-05-14 17:49:00,73.0,42.3,30.06,SW,225,1.1,3.6,33,0.00,,---,0.00,VWS V14.01,2013-05-15 00:49:00,
2013-05-14 17:59:00,72.3,40.8,30.06,SW,225,3.1,5.6,32,0.00,,---,0.00,VWS V14.01,2013-05-15 00:59:00,
2013-05-14 18:09:00,71.1,40.5,30.06,WSW,248,2.2,3.6,33,0.00,,---,0.00,VWS V14.01,2013-05-15 01:09:00,
2013-05-14 18:19:00,70.0,39.6,30.03,SSE,158,0.9,6.3,33,0.00,,---,0.00,VWS V14.01,2013-05-15 01:19:00,
2013-05-14 18:29:00,68.9,40.2,30.03,WNW,292,2.5,4.9,35,0.00,,---,0.00,VWS V14.01,2013-05-15 01:29:00,
2013-05-14 18:34:00,67.3,40.1,30.03,SSE,158,1.1,4.9,37,0.00,,---,0.00,VWS V14.01,2013-05-15 01:34:00,
2013-05-14 18:44:00,64.2,40.7,30.03,SW,225,0.9,6.3,42,0.00,,---,0.00,VWS V14.01,2013-05-15 01:44:00,
2013-05-14 18:49:00,63.1,40.9,30.03,SSW,202,1.6,3.8,44,0.00,,---,0.00,VWS V14.01,2013-05-15 01:49:00,
2013-05-14 18:59:00,62.1,40.5,30.06,SW,225,0.0,5.4,45,0.00,,---,0.00,VWS V14.01,2013-05-15 01:59:00,
2013-05-14 19:09:00,60.8,41.0,30.06,WSW,248,2.5,4.0,48,0.00,,---,0.00,VWS V14.01,2013-05-15 02:09:00,
2013-05-14 19:19:00,60.3,41.6,30.03,WSW,248,5.4,5.4,50,0.00,,---,0.00,VWS V14.01,2013-05-15 02:19:00,
2013-05-14 19:29:00,59.2,40.6,30.06,WSW,248,1.1,2.9,50,0.00,,---,0.00,VWS V14.01,2013-05-15 02:29:00,
2013-05-14 19:34:00,59.0,40.4,30.06,WNW,292,2.5,3.1,50,0.00,,---,0.00,VWS V14.01,2013-05-15 02:34:00,
2013-05-14 19:44:00,58.1,39.6,30.06,SW,225,2.5,4.0,50,0.00,,---,0.00,VWS V14.01,2013-05-15 02:44:00,
2013-05-14 19:54:00,57.2,39.2,30.06,WSW,248,0.0,2.7,51,0.00,,---,0.00,VWS V14.01,2013-05-15 02:54:00,
2013-05-14 20:04:00,56.8,41.3,30.06,SE,135,3.4,3.4,56,0.00,,---,0.00,VWS V14.01,2013-05-15 03:04:00,
2013-05-14 20:14:00,56.5,42.3,30.06,SW,225,0.9,3.4,59,0.00,,---,0.00,VWS V14.01,2013-05-15 03:14:00,
2013-05-14 20:19:00,56.1,41.1,30.06,NNW,338,2.5,3.1,57,0.00,,---,0.00,VWS V14.01,2013-05-15 03:19:00,
2013-05-14 20:29:00,55.2,40.7,30.03,WSW,248,0.0,3.6,58,0.00,,---,0.00,VWS V14.01,2013-05-15 03:29:00,
2013-05-14 20:39:00,54.5,39.6,30.03,WSW,248,2.2,2.5,57,0.00,,---,0.00,VWS V14.01,2013-05-15 03:39:00,
2013-05-14 20:44:00,54.3,39.9,30.06,SSW,202,0.9,2.5,58,0.00,,---,0.00,VWS V14.01,2013-05-15 03:44:00,
2013-05-14 20:54:00,54.5,42.2,30.06,SSE,158,2.9,4.0,63,0.00,,---,0.00,VWS V14.01,2013-05-15 03:54:00,
2013-05-14 20:59:00,54.5,42.6,30.06,West,270,1.3,3.6,64,0.00,,---,0.00,VWS V14.01,2013-05-15 03:59:00,
2013-05-14 21:04:00,54.5,43.0,30.06,SSE,158,0.0,4.0,65,0.00,,---,0.00,VWS V14.01,2013-05-15 04:04:00,
2013-05-14 21:09:00,54.5,42.6,30.06,SSE,158,2.9,3.1,64,0.00,,---,0.00,VWS V14.01,2013-05-15 04:09:00,
2013-05-14 21:19:00,54.3,43.2,30.03,SSE,158,1.3,6.0,66,0.00,,---,0.00,VWS V14.01,2013-05-15 04:19:00,
2013-05-14 21:29:00,54.1,43.4,30.06,WSW,248,0.0,6.0,67,0.00,,---,0.00,VWS V14.01,2013-05-15 04:29:00,
2013-05-14 21:39:00,53.8,43.1,30.06,SSE,158,2.5,6.0,67,0.00,,---,0.00,VWS V14.01,2013-05-15 04:39:00,
2013-05-14 21:44:00,53.6,42.5,30.06,SSW,202,2.2,2.9,66,0.00,,---,0.00,VWS V14.01,2013-05-15 04:44:00,
2013-05-14 21:49:00,53.2,42.2,30.06,SSW,202,2.7,2.7,66,0.00,,---,0.00,VWS V14.01,2013-05-15 04:49:00,
2013-05-14 21:59:00,52.7,41.3,30.09,SSW,202,0.0,0.0,65,0.00,,---,0.00,VWS V14.01,2013-05-15 04:59:00,
2013-05-14 22:04:00,52.9,43.0,30.09,WSW,248,3.4,5.4,69,0.00,,---,0.00,VWS V14.01,2013-05-15 05:04:00,
2013-05-14 22:14:00,53.1,43.5,30.09,WNW,292,1.6,3.8,70,0.00,,---,0.00,VWS V14.01,2013-05-15 05:14:00,
2013-05-14 22:19:00,53.1,43.5,30.09,SSW,202,4.3,4.3,70,0.00,,---,0.00,VWS V14.01,2013-05-15 05:19:00,
2013-05-14 22:29:00,52.9,43.4,30.09,SSW,202,3.1,3.8,70,0.00,,---,0.00,VWS V14.01,2013-05-15 05:29:00,
2013-05-14 22:34:00,52.7,43.6,30.09,SSW,202,1.3,5.8,71,0.00,,---,0.00,VWS V14.01,2013-05-15 05:34:00,
2013-05-14 22:39:00,52.7,43.6,30.09,West,270,2.7,4.3,71,0.00,,---,0.00,VWS V14.01,2013-05-15 05:39:00,
2013-05-14 22:49:00,52.7,43.6,30.09,South,180,1.6,4.3,71,0.00,,---,0.00,VWS V14.01,2013-05-15 05:49:00,
2013-05-14 22:59:00,52.5,43.8,30.12,ENE,68,4.3,4.3,72,0.00,,---,0.00,VWS V14.01,2013-05-15 05:59:00,
2013-05-14 23:04:00,52.5,43.8,30.12,WSW,248,4.3,4.3,72,0.00,,---,0.00,VWS V14.01,2013-05-15 06:04:00,
2013-05-14 23:14:00,52.2,43.1,30.12,SSW,202,3.1,3.4,71,0.00,,---,0.00,VWS V14.01,2013-05-15 06:14:00,
2013-05-14 23:19:00,52.2,43.4,30.12,South,180,3.1,3.6,72,0.00,,---,0.00,VWS V14.01,2013-05-15 06:19:00,
2013-05-14 23:29:00,51.8,43.1,30.12,WSW,248,2.2,4.0,72,0.00,,---,0.00,VWS V14.01,2013-05-15 06:29:00,
2013-05-14 23:38:00,51.6,43.6,30.12,WSW,248,1.1,6.5,74,0.00,,---,0.00,VWS V14.01,2013-05-15 06:38:00,
2013-05-14 23:43:00,51.6,43.6,30.12,SSW,202,0.0,3.6,74,0.00,,---,0.00,VWS V14.01,2013-05-15 06:43:00,
2013-05-14 23:54:00,51.6,44.0,30.12,South,180,0.9,5.8,75,0.00,,---,0.00,VWS V14.01,2013-05-15 06:54:00,